Regional Weather Roundup
Issued by NWS

Home | Current Version | Previous Version | Text Only | Print | Product List | Glossary Off
Versions: 1 2 3 4 5 6 7 8 9 10 11 12 13 14 15 16 17 18 19 20 21 22 23 24 25 26 27 28 29 30 31 32 33 34 35 36 37 38 39 40 41 42 43 44 45 46 47 48 49 50

000
ASUS43 KMPX 280901
RWRMN
WEATHER ROUNDUP FOR MINNESOTA
NATIONAL WEATHER SERVICE TWIN CITIES/CHANHASSEN MN
400 AM CDT TUE APR 28 2015


NOTE: "FAIR" INDICATES FEW OR NO CLOUDS BELOW 12,000 FEET WITH NO
SIGNIFICANT WEATHER AND/OR OBSTRUCTIONS TO VISIBILITY. N/A MEANS
CURRENT SKY AND/OR WEATHER CONDITIONS ARE NOT AVAILABLE.

MNZ060>063-068>070-281000-
   Twin Cities Metro

CITY           SKY/WX    TMP DP  RH WIND       PRES   REMARKS
TWIN CITIES    MOCLDY    48  33  56 CALM      30.15S
ST PAUL        CLEAR     43  34  70 E3        30.15F
CRYSTAL        CLEAR     41  34  76 CALM      30.13S
BLAINE         CLEAR     41  34  75 CALM      30.14S
LAKEVILLE      PTCLDY    37  30  75 CALM      30.15S
EDEN PRAIRIE   CLEAR     45  29  53 SW5       30.13F
SOUTH ST PAUL  CLEAR     43  33  67 CALM      30.15S
LAKE ELMO      FAIR      37  32  81 CALM      30.16S
$$
MNZ001>005-007-008-013>017-022>024-027-028-281000-
   Northwest Minnesota

CITY           SKY/WX    TMP DP  RH WIND       PRES   REMARKS
BEMIDJI        RAIN      46  43  89 NW9       30.21R
HALLOCK        FOG       36  36 100 CALM      30.27R VSB<1/4
ROSEAU         CLOUDY    45  39  81 N9        30.25R
WARROAD        CLOUDY    45  39  81 N8        30.25S
THIEF RVR FALL CLOUDY    43  43 100 N6        30.25S
CROOKSTON      PTCLDY    39  39 100 N5        30.27R FOG
FOSSTON        LGT RAIN  43  43 100 N6        30.24S
DETROIT LAKES  DRIZZLE   45  45 100 NW8       30.23S
MOORHEAD       LGT RAIN  45  45 100 N10       30.25S
PARK RAPIDS    CLOUDY    52  43  71 NW8       30.18R
MAHNOMEN       DRIZZLE   45  44  96 N10       30.23S
$$
MNZ006-009>011-018-025>026-281000-
   North Central Minnesota

CITY           SKY/WX    TMP DP  RH WIND       PRES   REMARKS
BAUDETTE       CLOUDY    43  41  93 N10       30.22S
FLAG ISLAND    CLOUDY    43  39  87 NW13      30.24S
INTL FALLS     LGT RAIN  48  45  89 N10       30.18R
WASKISH        DRIZZLE   45  43  93 CALM      30.22R
BIG FORK       CLOUDY    48  41  76 CALM      30.18S
LONGVILLE      CLOUDY    52  43  71 N6        30.17R
GRAND RAPIDS   MOCLDY    46  30  53 NW8       30.16R
CRANE LAKE     CLOUDY    39  34  81 CALM      30.18R
ORR            CLOUDY    48  37  66 NW6       30.14R
COOK           MOCLDY    41  32  70 CALM      30.15S
WALKER         DRIZZLE   50  42  75 NW6       30.18R
$$
MNZ012-019>021-037-281000-
   Northeast Minnesota

CITY           SKY/WX    TMP DP  RH WIND       PRES   REMARKS
DULUTH         CLEAR     39  28  64 CALM      30.14S
ELY            PTCLDY    30  27  86 CALM      30.14S
HIBBING        MOCLDY    40  28  62 CALM      30.14R
EVELETH        PTCLDY    34  30  86 W3        30.16R
DULUTH HARBOR  CLEAR     37  34  87 CALM      30.16S
TWO HARBORS    PTCLDY    34  28  80 CALM      30.13S
SILVER BAY     PTCLDY    30  27  86 CALM      30.13S
GRAND MARAIS     N/A     35  29  78 CALM      30.14S
G MARAIS ARPRT PTCLDY    28  23  80 W6        30.13S WCI  22
$$
MNZ029>031-032-039>041-046>048-054>057-064-281000-
   West Central Minnesota

CITY           SKY/WX    TMP DP  RH WIND       PRES   REMARKS
FERGUS FALLS   CLOUDY    52  39  62 CALM      30.23R
WHEATON        CLOUDY    46  41  81 NW9       30.24S
MORRIS         CLOUDY    50  41  71 NW16      30.19S
ALEXANDRIA     CLOUDY    50  42  74 W3        30.19R
ELBOW LAKE     CLOUDY    50  42  73 N8        30.20S
WADENA         RAIN      52  43  71 W5        30.18R
GLENWOOD       PTCLDY    46  41  81 NW8       30.18S
APPLETON       MOCLDY    52  41  66 NW10      30.20R
BENSON         CLOUDY    48  41  76 N7        30.18S
ORTONVILLE     CLOUDY    52  41  66 SW3       30.21R
MADISON        MOCLDY    48  41  76 NW8       30.21R
WILLMAR        FAIR      43  36  75 NW7       30.18S
$$
MNZ033>034-036-042>043-049>051-058-059-281000-
   Central Minnesota

CITY           SKY/WX    TMP DP  RH WIND       PRES   REMARKS
ST CLOUD       CLEAR     39  30  70 CALM      30.14R
SAUK CENTRE    FAIR      44  34  68 CALM      30.17R
PAYNESVILLE    CLEAR     36  30  77 SW7       30.17R
AITKIN         PTCLDY    34  28  80 CALM      30.13R
PINE RIVER     CLOUDY    54  45  71 N9        30.18S
BRAINERD       PTCLDY    49  39  68 N7        30.15R
STAPLES        MOCLDY    48  39  71 NW5       30.17R
LONG PRAIRIE   MOCLDY    50  37  62 NW8       30.17R
LITTLE FALLS   PTCLDY    36  32  87 CALM      30.15R
LITCHFIELD     CLEAR     52  30  43 W3        30.16S
BUFFALO        CLEAR     40  32  72 CALM      30.16R
MAPLE LAKE     CLEAR     48  32  53 W5        30.15R
$$
MNZ037-044-045-052-053-281000-
   East Central Minnesota

CITY           SKY/WX    TMP DP  RH WIND       PRES   REMARKS
PRINCETON      CLEAR     37  32  81 CALM      30.14S
MORA           CLEAR     34  30  86 CALM      30.15S
CAMBRIDGE      FAIR      39  30  70 CALM      30.12S
RUSH CITY      CLEAR     39  29  67 CALM      30.14S
MOOSE LAKE     CLEAR     32  32 100 CALM      30.12F
HINCKLEY       FAIR      32  30  93 CALM      30.13F
CLOQUET        CLEAR     34  28  80 CALM      30.14S
MCGREGOR       PTCLDY    37  28  70 W3        30.14S
$$
MNZ071>073-080-081-089-090-097-098-281000-
   Southwest Minnesota

CITY           SKY/WX    TMP DP  RH WIND       PRES   REMARKS
MONTEVIDEO     PTCLDY    46  39  76 N8        30.20S
GRANITE FALLS  CLEAR     44  37  78 NW9       30.21R
CANBY          MOCLDY    46  41  81 NW8       30.22S
MARSHALL       CLEAR     45  36  70 NW9       30.20S
REDWOOD FALLS  CLEAR     44  30  57 NW12      30.18R
OLIVIA         CLEAR     39  28  65 NW5       30.16S
PIPESTONE      FAIR      46  37  71 N8        30.20S
WINDOM         PTCLDY    39  27  60 CALM      30.18S
WORTHINGTON    CLEAR     43  21  42 W3        30.19S
JACKSON        PTCLDY    45  27  49 W3        30.18S
TRACY          CLEAR     47  38  73 NW7       30.21S
SLAYTON        CLEAR     40  33  76 CALM      30.22R
$$
MNZ065>067-074>077-082>085-091>093-281000-
   South Central Minnesota

CITY           SKY/WX    TMP DP  RH WIND       PRES   REMARKS
MANKATO        PTCLDY    46  27  46 SW3       30.16S
NEW ULM        CLEAR     39  23  52 W6        30.16S
ST JAMES       PTCLDY    39  25  56 CALM      30.18S
FAIRMONT       PTCLDY    43  28  56 W5        30.16S
GLENCOE        CLEAR     44  29  57 CALM      30.15S
FARIBAULT      PTCLDY    37  34  87 CALM      30.16S
OWATONNA       PTCLDY    37  30  75 E7        30.16S
WASECA         PTCLDY    39  28  65 CALM      30.18R
ALBERT LEA     PTCLDY    41  30  65 CALM      30.16S
$$
MNZ078>079-086>088-094>096-281000-
   Southeast Minnesota

CITY           SKY/WX    TMP DP  RH WIND       PRES   REMARKS
ROCHESTER      CLEAR     46  27  47 NW7       30.16S
RED WING       FAIR      37  30  75 CALM      30.15S
STANTON        PTCLDY    37  28  70 S5        30.15R
DODGE CENTER   PTCLDY    43  30  61 NW3       30.16R
WINONA         CLEAR     41  36  81 CALM      30.16R
AUSTIN         CLEAR     39  34  81 CALM      30.15S
PRESTON        CLEAR     46  29  52 CALM      30.15R
$$
ABBREVIATIONS USED IN REMARKS
   TC - TEMPERATURES IN CELSIUS
  WCI - WIND CHILL INDEX
   HX - HEAT INDEX
  VSB - VISIBILITY
$$



USA.gov is the U.S. government's official web portal to all federal, state and local government web resources and services.